Location: La Brionne
(46.1728°N, 1.7849°E)
Time: 09:08:17
(UTC+00:00)

Cosmos 405 - Pass Details

Date: 16 June 2021
Orbit: 446 x 459 km, 81.3° (Epoch: 02 August)

Event Time Altitude Azimuth Distance (km) Brightness Sun altitude
Rises 22:29:54 0° 340° (NNW) 2,463 8.4 -17.9°
Reaches altitude 10° 22:32:06 10° 331° (NNW) 1,584 6.9 -18.0°
Maximum altitude 22:35:15 34° 266° (W) 767 4.1 -18.2°
Enters shadow 22:36:16 27° 230° (SW) 888 4.2 -18.3°
